Orbital Elements at Epoch 2459200.5 (2020-Dec-17.0) TDB
Reference: JPL 13 (heliocentric ecliptic J2000)
Element | Value | Uncertainty (1-sigma) | Units |
e | .1294670898234765 | 4.3155e-08 | |
a | 2.234924825817643 | 1.1514e-08 | au |
q | 1.945575612644792 | 9.487e-08 | au |
i | 2.359444392408246 | 4.4307e-06 | deg |
node | 157.0774760035376 | 0.00011888 | deg |
peri | 256.3995998870732 | 0.00012062 | deg |
M | 48.29222810574688 | 2.0887e-05 | deg |
tp | 2459036.792887257374 (2020-Jul-06.29288726) | 7.0185e-05 | TDB |
period | 1220.373606665959 3.34 | 9.4308e-06 2.582e-08 | d yr |
n | .294991630459392 | 2.2796e-09 | deg/d |
Q | 2.524274038990493 | 1.3005e-08 | au |
|
| | Orbit Determination Parameters
Additional Information
|